AEE560 LGTS-LEBL

Flight info

Callsign AEE560
Flight time N/A
Altitude 34000
Route EDASI UM603 PINDO DCT GOKEL/N0450F350 DCT NUCRE DCT XAPAT DCT KAPPO DCT MOKTO DCT LUNAR DCT UNIXO DCT EPIKU/N0451F340 DCT GINOX DCT KIFMI/N0440F280 DCT ELVOP DCT MUREN DCT CHELY DCT VERSO
Aircraft A320/M-SDE3FGHIRWY/LB1

Departure

Time 2026-04-28 02:48
Airport Thessaloniki Macedonia International Airport (LGTS)

Arrival

Time N/A
Airport Josep Tarradellas Barcelona-El Prat Airport (LEBL)
Time Latitude Longitude Altitude Speed Heading
2026-04-28 02:29 40.52529 22.97296 29 ft 0 kts 44°
2026-04-28 02:39 40.52516 22.97280 28 ft 2 kts 44°
2026-04-28 02:39 40.52502 22.97260 28 ft 3 kts 59°
2026-04-28 02:40 40.52495 22.97234 28 ft 3 kts 98°
2026-04-28 02:40 40.52503 22.97211 28 ft 3 kts 153°
2026-04-28 02:40 40.52525 22.97202 28 ft 3 kts 166°
2026-04-28 02:40 40.52529 22.97201 28 ft 0 kts 166°
2026-04-28 02:43 40.52528 22.97201 28 ft 1 kts 166°
2026-04-28 02:43 40.52498 22.97210 28 ft 9 kts 167°
2026-04-28 02:44 40.52420 22.97239 28 ft 13 kts 155°
2026-04-28 02:44 40.52341 22.97336 28 ft 18 kts 134°
2026-04-28 02:44 40.52244 22.97463 28 ft 21 kts 135°
2026-04-28 02:44 40.52163 22.97591 28 ft 18 kts 112°
2026-04-28 02:45 40.52095 22.97724 28 ft 17 kts 136°
2026-04-28 02:45 40.52006 22.97841 29 ft 19 kts 127°
2026-04-28 02:45 40.51969 22.98012 29 ft 20 kts 104°
2026-04-28 02:45 40.51932 22.98201 29 ft 22 kts 104°
2026-04-28 02:46 40.51895 22.98407 28 ft 24 kts 103°
2026-04-28 02:46 40.51857 22.98612 28 ft 19 kts 104°
2026-04-28 02:46 40.51819 22.98706 28 ft 10 kts 155°
2026-04-28 02:46 40.51748 22.98692 29 ft 11 kts 194°
2026-04-28 02:47 40.51693 22.98666 29 ft 6 kts 217°
2026-04-28 02:47 40.51683 22.98628 28 ft 0 kts 282°
2026-04-28 02:47 40.51694 22.98566 28 ft 32 kts 284°
2026-04-28 02:47 40.51809 22.97967 29 ft 99 kts 284°
2026-04-28 02:48 40.52021 22.96852 28 ft 150 kts 284°
2026-04-28 02:48 40.52297 22.95386 232 ft 172 kts 284°
2026-04-28 02:48 40.52623 22.93859 782 ft 175 kts 286°
2026-04-28 02:48 40.52967 22.92327 1439 ft 174 kts 286°
2026-04-28 02:49 40.53305 22.90805 1951 ft 182 kts 285°
2026-04-28 02:49 40.53677 22.89111 2197 ft 204 kts 285°
2026-04-28 02:49 40.54089 22.87210 2421 ft 229 kts 285°
2026-04-28 02:49 40.54544 22.85094 2775 ft 252 kts 285°
2026-04-28 02:50 40.55030 22.82829 3464 ft 260 kts 285°
2026-04-28 02:50 40.55342 22.80484 4312 ft 263 kts 270°
2026-04-28 02:50 40.55227 22.78072 5180 ft 265 kts 267°
2026-04-28 02:50 40.55077 22.75634 6010 ft 269 kts 267°
2026-04-28 02:51 40.54921 22.73208 6807 ft 272 kts 267°
2026-04-28 02:51 40.54759 22.70719 7557 ft 275 kts 267°
2026-04-28 02:51 40.54595 22.68195 8308 ft 279 kts 267°
2026-04-28 02:51 40.54427 22.65634 9055 ft 283 kts 267°
2026-04-28 02:52 40.54256 22.63041 9796 ft 287 kts 267°
2026-04-28 02:52 40.54082 22.60409 10425 ft 294 kts 267°
2026-04-28 02:52 40.53899 22.57630 10593 ft 317 kts 266°
2026-04-28 02:52 40.53703 22.54639 10720 ft 339 kts 266°
2026-04-28 02:53 40.53495 22.51485 11079 ft 351 kts 266°
2026-04-28 02:53 40.53279 22.48270 11674 ft 355 kts 266°
2026-04-28 02:53 40.53061 22.45064 12295 ft 359 kts 266°
2026-04-28 02:53 40.52837 22.41782 12914 ft 362 kts 266°
2026-04-28 02:54 40.52617 22.38474 13540 ft 365 kts 266°
2026-04-28 02:54 40.52404 22.35135 14139 ft 369 kts 266°
2026-04-28 02:54 40.52195 22.31764 14699 ft 371 kts 266°
2026-04-28 02:54 40.51982 22.28368 15259 ft 374 kts 266°
2026-04-28 02:55 40.51764 22.24958 15813 ft 376 kts 266°
2026-04-28 02:55 40.51543 22.21526 16365 ft 378 kts 266°
2026-04-28 02:55 40.51324 22.18117 16925 ft 381 kts 267°
2026-04-28 02:55 40.51100 22.14639 17500 ft 383 kts 267°
2026-04-28 02:56 40.50872 22.11140 18085 ft 386 kts 267°
2026-04-28 02:56 40.50643 22.07619 18654 ft 388 kts 267°
2026-04-28 02:56 40.50413 22.04076 19182 ft 390 kts 267°
2026-04-28 02:56 40.50179 22.00514 19700 ft 393 kts 267°
2026-04-28 02:57 40.49939 21.96928 20232 ft 395 kts 267°
2026-04-28 02:57 40.49695 21.93316 20741 ft 398 kts 267°
2026-04-28 02:57 40.49451 21.89685 21233 ft 400 kts 267°
2026-04-28 02:57 40.49207 21.86034 21695 ft 403 kts 267°
2026-04-28 02:58 40.48961 21.82410 22169 ft 404 kts 267°
2026-04-28 02:58 40.48709 21.78727 22617 ft 406 kts 267°
2026-04-28 02:58 40.48455 21.75018 23032 ft 409 kts 267°
2026-04-28 02:58 40.48199 21.71292 23454 ft 411 kts 267°
2026-04-28 02:59 40.47940 21.67539 23850 ft 414 kts 267°
2026-04-28 02:59 40.47679 21.63766 24183 ft 416 kts 267°
2026-04-28 02:59 40.47416 21.59967 24518 ft 418 kts 267°
2026-04-28 02:59 40.47149 21.56153 24844 ft 421 kts 267°
2026-04-28 03:00 40.46879 21.52323 25168 ft 423 kts 267°
2026-04-28 03:00 40.46608 21.48523 25476 ft 425 kts 267°
2026-04-28 03:00 40.46332 21.44653 25783 ft 427 kts 267°
2026-04-28 03:00 40.46058 21.40767 26102 ft 429 kts 268°
2026-04-28 03:01 40.45780 21.36851 26416 ft 431 kts 268°
2026-04-28 03:01 40.45498 21.32922 26733 ft 434 kts 268°
2026-04-28 03:01 40.45239 21.28967 27043 ft 435 kts 271°
2026-04-28 03:01 40.45347 21.25015 27330 ft 433 kts 279°
2026-04-28 03:02 40.45726 21.21087 27698 ft 433 kts 280°
2026-04-28 03:02 40.46097 21.17165 28137 ft 432 kts 280°
2026-04-28 03:02 40.46456 21.13297 28551 ft 432 kts 280°
2026-04-28 03:02 40.46815 21.09382 28943 ft 432 kts 280°
2026-04-28 03:03 40.47172 21.05466 29353 ft 432 kts 280°
2026-04-28 03:03 40.47529 21.01553 29803 ft 431 kts 280°
2026-04-28 03:03 40.47889 20.97650 30234 ft 430 kts 280°
2026-04-28 03:03 40.48239 20.93748 30636 ft 430 kts 279°
2026-04-28 03:04 40.48542 20.89852 31048 ft 428 kts 278°
2026-04-28 03:04 40.48807 20.85960 31469 ft 427 kts 278°
2026-04-28 03:04 40.49048 20.82086 31904 ft 425 kts 278°
2026-04-28 03:04 40.49279 20.78270 32312 ft 424 kts 277°
2026-04-28 03:05 40.49518 20.74424 32755 ft 422 kts 278°
2026-04-28 03:05 40.49764 20.70592 33188 ft 420 kts 278°
2026-04-28 03:05 40.50014 20.66782 33627 ft 418 kts 278°
2026-04-28 03:05 40.50266 20.62988 34032 ft 417 kts 278°
2026-04-28 03:06 40.50519 20.59182 34119 ft 419 kts 278°
2026-04-28 03:06 40.51032 20.51445 34132 ft 429 kts 278°
2026-04-28 03:07 40.51535 20.43661 34125 ft 431 kts 277°
2026-04-28 03:07 40.52035 20.35804 34125 ft 432 kts 277°
2026-04-28 03:08 40.52532 20.27932 34111 ft 432 kts 277°
2026-04-28 03:08 40.53018 20.20062 34104 ft 432 kts 277°
2026-04-28 03:09 40.53504 20.12241 34100 ft 433 kts 277°
2026-04-28 03:09 40.53976 20.04347 34089 ft 433 kts 277°
2026-04-28 03:10 40.54454 19.96453 34093 ft 433 kts 277°
2026-04-28 03:10 40.54931 19.88557 34089 ft 433 kts 277°
2026-04-28 03:11 40.55407 19.80660 34097 ft 433 kts 277°
2026-04-28 03:11 40.55856 19.72811 34072 ft 434 kts 277°
2026-04-28 03:12 40.56302 19.64893 34077 ft 434 kts 277°
2026-04-28 03:12 40.56758 19.56970 34077 ft 434 kts 277°
2026-04-28 03:13 40.57204 19.49043 34092 ft 435 kts 277°
2026-04-28 03:13 40.57644 19.41166 34083 ft 435 kts 277°
2026-04-28 03:14 40.58082 19.33243 34090 ft 435 kts 277°
2026-04-28 03:14 40.58507 19.25309 34087 ft 435 kts 276°
2026-04-28 03:15 40.58927 19.17382 34090 ft 434 kts 276°
2026-04-28 03:15 40.59342 19.09506 34087 ft 435 kts 276°
2026-04-28 03:16 40.59754 19.01565 34136 ft 436 kts 276°
2026-04-28 03:16 40.59937 18.97586 34438 ft 435 kts 275°
2026-04-28 03:16 40.60047 18.93608 34748 ft 435 kts 274°
2026-04-28 03:16 40.60103 18.89634 35016 ft 435 kts 273°
2026-04-28 03:17 40.60132 18.85657 35080 ft 435 kts 273°
2026-04-28 03:17 40.60232 18.73784 35078 ft 435 kts 273°
2026-04-28 03:18 40.60353 18.65835 35084 ft 435 kts 274°
2026-04-28 03:18 40.60479 18.57874 35080 ft 435 kts 273°
2026-04-28 03:19 40.60587 18.49917 35082 ft 435 kts 273°
2026-04-28 03:19 40.60683 18.42003 35076 ft 436 kts 273°
2026-04-28 03:20 40.60770 18.34025 35077 ft 436 kts 273°
2026-04-28 03:20 40.60837 18.26041 35084 ft 437 kts 273°
2026-04-28 03:21 40.60912 18.18047 35091 ft 437 kts 273°
2026-04-28 03:21 40.60990 18.10109 35095 ft 437 kts 273°
2026-04-28 03:22 40.61061 18.02108 35100 ft 437 kts 273°
2026-04-28 03:22 40.61131 17.94113 35101 ft 437 kts 273°
2026-04-28 03:23 40.61196 17.86092 35108 ft 440 kts 272°
2026-04-28 03:23 40.61251 17.78093 35107 ft 440 kts 272°
2026-04-28 03:24 40.61286 17.70057 35099 ft 439 kts 272°
2026-04-28 03:24 40.61320 17.62027 35097 ft 439 kts 272°
2026-04-28 03:25 40.61363 17.54001 35093 ft 438 kts 272°
2026-04-28 03:25 40.61394 17.46031 35092 ft 439 kts 272°
2026-04-28 03:26 40.61410 17.38002 35087 ft 438 kts 272°
2026-04-28 03:26 40.61427 17.29984 35092 ft 438 kts 272°
2026-04-28 03:27 40.61444 17.21958 35099 ft 438 kts 272°
2026-04-28 03:27 40.61507 17.13994 35100 ft 438 kts 274°
2026-04-28 03:28 40.61894 17.06006 35101 ft 437 kts 276°
2026-04-28 03:28 40.62393 16.98028 35099 ft 437 kts 276°
2026-04-28 03:29 40.62835 16.90051 35104 ft 437 kts 275°
2026-04-28 03:29 40.63211 16.82119 35142 ft 437 kts 275°
2026-04-28 03:30 40.63569 16.74129 35149 ft 437 kts 275°
2026-04-28 03:30 40.63939 16.66138 35151 ft 437 kts 275°
2026-04-28 03:31 40.64308 16.58203 35152 ft 437 kts 275°
2026-04-28 03:31 40.64676 16.50223 35143 ft 437 kts 275°
2026-04-28 03:32 40.65032 16.42235 35138 ft 437 kts 275°
2026-04-28 03:32 40.65382 16.34250 35123 ft 437 kts 275°
2026-04-28 03:33 40.65731 16.26261 35121 ft 437 kts 275°
2026-04-28 03:33 40.66071 16.18333 35129 ft 437 kts 275°
2026-04-28 03:34 40.66406 16.10343 35123 ft 437 kts 275°
2026-04-28 03:34 40.66734 16.02353 35126 ft 437 kts 275°
2026-04-28 03:35 40.67057 15.94367 35126 ft 436 kts 274°
2026-04-28 03:35 40.67378 15.86440 35134 ft 436 kts 274°
2026-04-28 03:36 40.67686 15.78460 35140 ft 436 kts 274°
2026-04-28 03:36 40.67992 15.70485 35143 ft 436 kts 274°
2026-04-28 03:37 40.68296 15.62511 35131 ft 436 kts 274°
2026-04-28 03:37 40.68595 15.54539 35139 ft 435 kts 274°
2026-04-28 03:38 40.68880 15.46626 35126 ft 435 kts 274°
2026-04-28 03:38 40.69172 15.38662 35134 ft 435 kts 274°
2026-04-28 03:39 40.69515 15.30700 35127 ft 435 kts 275°
2026-04-28 03:39 40.69861 15.22739 35116 ft 435 kts 274°
2026-04-28 03:40 40.70184 15.14829 35122 ft 435 kts 274°
2026-04-28 03:40 40.70500 15.06860 35129 ft 435 kts 274°
2026-04-28 03:41 40.70814 14.98889 35127 ft 435 kts 274°
2026-04-28 03:41 40.71126 14.90923 35108 ft 435 kts 274°
2026-04-28 03:42 40.71429 14.83004 35125 ft 436 kts 274°
2026-04-28 03:42 40.71725 14.75030 35125 ft 436 kts 274°
2026-04-28 03:43 40.72012 14.67052 35119 ft 436 kts 274°
2026-04-28 03:43 40.72297 14.59077 35124 ft 436 kts 274°
2026-04-28 03:44 40.72581 14.51160 35118 ft 436 kts 274°
2026-04-28 03:44 40.72856 14.43181 35113 ft 436 kts 274°
2026-04-28 03:45 40.73126 14.35207 35118 ft 436 kts 274°
2026-04-28 03:45 40.73393 14.27226 35119 ft 436 kts 274°
2026-04-28 03:46 40.73653 14.19296 35111 ft 436 kts 274°
2026-04-28 03:46 40.73910 14.11316 35113 ft 436 kts 274°
2026-04-28 03:47 40.74160 14.03327 35114 ft 436 kts 274°
2026-04-28 03:47 40.74402 13.95332 35114 ft 436 kts 274°
2026-04-28 03:48 40.74636 13.87391 35113 ft 436 kts 273°
2026-04-28 03:48 40.74864 13.79396 35108 ft 436 kts 273°
2026-04-28 03:49 40.75089 13.71397 35106 ft 437 kts 273°
2026-04-28 03:49 40.75315 13.63394 35107 ft 437 kts 273°
2026-04-28 03:50 40.75533 13.55390 35111 ft 437 kts 273°
2026-04-28 03:50 40.75741 13.47441 35101 ft 437 kts 273°
2026-04-28 03:51 40.75941 13.39435 35105 ft 437 kts 273°
2026-04-28 03:51 40.76140 13.31436 35107 ft 437 kts 273°
2026-04-28 03:52 40.76338 13.23425 35107 ft 437 kts 273°
2026-04-28 03:52 40.76533 13.15471 35109 ft 437 kts 273°
2026-04-28 03:53 40.76716 13.07456 35109 ft 437 kts 272°
2026-04-28 03:53 40.76886 12.99445 35114 ft 437 kts 272°
2026-04-28 03:54 40.77055 12.91424 35111 ft 437 kts 272°
2026-04-28 03:54 40.77224 12.83452 35112 ft 438 kts 272°
2026-04-28 03:55 40.77392 12.75427 35112 ft 438 kts 272°
2026-04-28 03:55 40.77550 12.67398 35111 ft 438 kts 272°
2026-04-28 03:56 40.77807 12.59361 35109 ft 438 kts 274°
2026-04-28 03:56 40.78137 12.51330 35110 ft 438 kts 274°
2026-04-28 03:57 40.78451 12.43348 35111 ft 439 kts 274°
2026-04-28 03:57 40.78735 12.35305 35106 ft 439 kts 273°
2026-04-28 03:58 40.79002 12.27256 35109 ft 439 kts 273°
2026-04-28 03:58 40.79270 12.19253 35110 ft 440 kts 273°
2026-04-28 03:59 40.79540 12.11200 35111 ft 440 kts 273°
2026-04-28 03:59 40.79802 12.03136 35105 ft 440 kts 273°
2026-04-28 04:00 40.80057 11.95065 35109 ft 440 kts 273°
2026-04-28 04:00 40.80306 11.86995 35112 ft 440 kts 273°
2026-04-28 04:01 40.80551 11.78981 35113 ft 440 kts 273°
2026-04-28 04:01 40.80791 11.70906 35110 ft 440 kts 273°
2026-04-28 04:02 40.81021 11.62825 35109 ft 440 kts 273°
2026-04-28 04:02 40.81251 11.54745 35109 ft 441 kts 273°
2026-04-28 04:03 40.81474 11.46713 35108 ft 441 kts 273°
2026-04-28 04:03 40.81690 11.38626 35109 ft 441 kts 273°
2026-04-28 04:04 40.81899 11.30534 35104 ft 441 kts 273°
2026-04-28 04:04 40.82102 11.22452 35101 ft 441 kts 273°
2026-04-28 04:05 40.82301 11.14359 35104 ft 441 kts 273°
2026-04-28 04:05 40.82499 11.06330 35106 ft 441 kts 273°
2026-04-28 04:06 40.82693 10.98251 35106 ft 440 kts 273°
2026-04-28 04:06 40.82874 10.90169 35107 ft 440 kts 272°
2026-04-28 04:07 40.83041 10.82092 35108 ft 440 kts 272°
2026-04-28 04:07 40.83214 10.74079 35108 ft 439 kts 272°
2026-04-28 04:08 40.83384 10.66022 35108 ft 439 kts 272°
2026-04-28 04:08 40.83549 10.57964 35107 ft 439 kts 272°
2026-04-28 04:09 40.83702 10.49904 35100 ft 439 kts 272°
2026-04-28 04:09 40.83843 10.41904 35099 ft 439 kts 272°
2026-04-28 04:10 40.83981 10.33851 35097 ft 439 kts 272°
2026-04-28 04:10 40.84125 10.25796 35097 ft 439 kts 272°
2026-04-28 04:11 40.84264 10.17745 35087 ft 438 kts 272°
2026-04-28 04:11 40.84393 10.09748 35088 ft 438 kts 272°
2026-04-28 04:12 40.84512 10.01702 35093 ft 438 kts 272°
2026-04-28 04:12 40.84622 9.93652 35090 ft 438 kts 272°
2026-04-28 04:13 40.84727 9.85598 35096 ft 438 kts 272°
2026-04-28 04:13 40.84830 9.77552 35096 ft 438 kts 272°
2026-04-28 04:14 40.84931 9.69567 35102 ft 438 kts 272°
2026-04-28 04:14 40.85026 9.61529 35105 ft 438 kts 272°
2026-04-28 04:15 40.85110 9.53496 35105 ft 438 kts 272°
2026-04-28 04:16 40.85228 9.41449 35102 ft 437 kts 272°
2026-04-28 04:16 40.85303 9.33481 35095 ft 436 kts 272°
2026-04-28 04:17 40.85372 9.25465 35093 ft 436 kts 272°
2026-04-28 04:17 40.85437 9.17453 35092 ft 436 kts 272°
2026-04-28 04:18 40.85485 9.09442 35089 ft 436 kts 272°
2026-04-28 04:18 40.85531 9.01502 35085 ft 435 kts 272°
2026-04-28 04:19 40.85579 8.93504 35086 ft 435 kts 272°
2026-04-28 04:19 40.85622 8.85517 35086 ft 435 kts 272°
2026-04-28 04:20 40.85657 8.77535 35078 ft 434 kts 272°
2026-04-28 04:20 40.85688 8.69556 35068 ft 434 kts 272°
2026-04-28 04:21 40.85706 8.61643 35072 ft 434 kts 272°
2026-04-28 04:21 40.85720 8.53676 35080 ft 433 kts 272°
2026-04-28 04:22 40.85733 8.45719 35072 ft 433 kts 272°
2026-04-28 04:22 40.85743 8.37818 35070 ft 433 kts 272°
2026-04-28 04:23 40.85744 8.29860 35070 ft 433 kts 271°
2026-04-28 04:23 40.85742 8.21911 35074 ft 433 kts 271°
2026-04-28 04:24 40.85731 8.13975 35072 ft 433 kts 271°
2026-04-28 04:24 40.85819 8.06079 35074 ft 432 kts 274°
2026-04-28 04:25 40.86219 7.98172 35072 ft 431 kts 276°
2026-04-28 04:25 40.86826 7.90291 35066 ft 431 kts 277°
2026-04-28 04:26 40.87458 7.82407 35065 ft 431 kts 277°
2026-04-28 04:26 40.88018 7.74515 35067 ft 432 kts 276°
2026-04-28 04:27 40.88534 7.66665 35069 ft 432 kts 276°
2026-04-28 04:27 40.89049 7.58769 35073 ft 432 kts 276°
2026-04-28 04:28 40.89564 7.50865 35067 ft 431 kts 276°
2026-04-28 04:28 40.90075 7.43019 35070 ft 431 kts 275°
2026-04-28 04:29 40.90586 7.35119 35069 ft 431 kts 275°
2026-04-28 04:29 40.91090 7.27223 35069 ft 431 kts 275°
2026-04-28 04:30 40.91593 7.19325 35071 ft 431 kts 275°
2026-04-28 04:30 40.92090 7.11482 35070 ft 431 kts 275°
2026-04-28 04:31 40.92575 7.03582 35075 ft 431 kts 275°
2026-04-28 04:31 40.93054 6.95687 35072 ft 431 kts 275°
2026-04-28 04:32 40.93535 6.87788 35074 ft 431 kts 275°
2026-04-28 04:32 40.94007 6.79945 35072 ft 430 kts 275°
2026-04-28 04:33 40.94472 6.72052 35072 ft 430 kts 275°
2026-04-28 04:33 40.94929 6.64179 35073 ft 429 kts 275°
2026-04-28 04:34 40.95382 6.56299 35073 ft 429 kts 275°
2026-04-28 04:34 40.95833 6.48487 35072 ft 429 kts 275°
2026-04-28 04:35 40.96276 6.40622 35072 ft 429 kts 274°
2026-04-28 04:35 40.96711 6.32757 35072 ft 428 kts 274°
2026-04-28 04:36 40.97141 6.24899 35069 ft 428 kts 274°
2026-04-28 04:36 40.97571 6.17098 35066 ft 428 kts 274°
2026-04-28 04:37 40.97990 6.09240 35065 ft 428 kts 274°
2026-04-28 04:37 40.98410 6.01390 35064 ft 427 kts 274°
2026-04-28 04:38 40.98826 5.93545 35065 ft 427 kts 274°
2026-04-28 04:38 40.99227 5.85755 35065 ft 427 kts 274°
2026-04-28 04:39 40.99618 5.77909 35064 ft 427 kts 274°
2026-04-28 04:39 41.00009 5.70070 35059 ft 427 kts 274°
2026-04-28 04:40 41.00403 5.62223 35062 ft 427 kts 274°
2026-04-28 04:40 41.00785 5.54434 35062 ft 427 kts 274°
2026-04-28 04:41 41.01163 5.46590 35063 ft 427 kts 273°
2026-04-28 04:41 41.01527 5.38746 35063 ft 427 kts 273°
2026-04-28 04:42 41.01921 5.30909 35063 ft 427 kts 274°
2026-04-28 04:42 41.02342 5.23128 35063 ft 426 kts 274°
2026-04-28 04:43 41.02756 5.15301 35063 ft 426 kts 274°
2026-04-28 04:43 41.03158 5.07471 35062 ft 426 kts 274°
2026-04-28 04:44 41.03549 4.99639 35058 ft 426 kts 274°
2026-04-28 04:44 41.03930 4.91861 35057 ft 426 kts 274°
2026-04-28 04:45 41.04306 4.84042 35057 ft 426 kts 274°
2026-04-28 04:45 41.04701 4.76221 35057 ft 425 kts 275°
2026-04-28 04:46 41.05417 4.68447 35058 ft 425 kts 278°
2026-04-28 04:46 41.06323 4.60764 35068 ft 424 kts 279°
2026-04-28 04:47 41.07229 4.53078 35071 ft 421 kts 278°
2026-04-28 04:47 41.08072 4.45428 35070 ft 418 kts 278°
2026-04-28 04:48 41.08874 4.37802 35067 ft 417 kts 278°
2026-04-28 04:48 41.09667 4.30194 35064 ft 416 kts 278°
2026-04-28 04:49 41.10459 4.22649 35062 ft 416 kts 278°
2026-04-28 04:49 41.11256 4.15052 35060 ft 416 kts 278°
2026-04-28 04:50 41.12052 4.07462 35056 ft 416 kts 278°
2026-04-28 04:50 41.12837 3.99859 35053 ft 416 kts 278°
2026-04-28 04:51 41.13607 3.92317 35050 ft 416 kts 278°
2026-04-28 04:51 41.14380 3.84713 35050 ft 416 kts 278°
2026-04-28 04:52 41.15153 3.77113 35046 ft 416 kts 277°
2026-04-28 04:52 41.15921 3.69558 35046 ft 416 kts 277°
2026-04-28 04:53 41.16688 3.61948 35047 ft 416 kts 277°
2026-04-28 04:53 41.17440 3.54331 35047 ft 416 kts 277°
2026-04-28 04:54 41.18191 3.46711 35043 ft 416 kts 277°
2026-04-28 04:54 41.18933 3.39089 35044 ft 416 kts 277°
2026-04-28 04:55 41.19670 3.31511 35044 ft 416 kts 277°
2026-04-28 04:55 41.20407 3.23881 35043 ft 417 kts 277°
2026-04-28 04:56 41.21136 3.16253 35042 ft 417 kts 277°
2026-04-28 04:56 41.21831 3.08614 35042 ft 417 kts 276°
2026-04-28 04:57 41.22491 3.01019 35041 ft 417 kts 276°
2026-04-28 04:57 41.23153 2.93370 35040 ft 417 kts 276°
2026-04-28 04:58 41.23810 2.85826 34775 ft 403 kts 276°
2026-04-28 04:58 41.24131 2.82143 34399 ft 399 kts 276°
2026-04-28 04:58 41.24446 2.78503 33975 ft 396 kts 276°
2026-04-28 04:58 41.24753 2.74929 33492 ft 393 kts 276°
2026-04-28 04:59 41.25062 2.71330 33016 ft 391 kts 276°